KD4YQH Weather Reports


Display with metric or nautical units.
time (UTC)temp
F
wind
direction
speed
MPH
gust
MPH
rain 1hr
in
rain 24hr
in
rain mn
in
humidity
%
barometer
mb
20260508203102 71 170 3.0 9.0 0.00 0.00 0.00 31 1009.9
20260508202059 71 84 3.0 10.0 0.00 0.00 0.00 32 1009.9
20260508201101 71 199 2.0 10.0 0.00 0.00 0.00 32 1009.9
20260508195058 70 226 5.0 9.0 0.00 0.00 0.00 28 1009.9
20260508194100 70 230 4.0 8.0 0.00 0.00 0.00 30 1009.9
20260508193059 70 213 3.0 8.0 0.00 0.00 0.00 30 1009.9
20260508192059 70 174 1.0 8.0 0.00 0.00 0.00 32 1009.9
20260508191053 69 196 0.0 8.0 0.00 0.00 0.00 32 1009.9
20260508190054 69 219 3.0 8.0 0.00 0.00 0.00 33 1009.9
20260508185052 69 149 3.0 8.0 0.00 0.00 0.00 34 1009.9
20260508183050 68 203 3.0 7.0 0.00 0.00 0.00 35 1009.9
20260508182048 68 199 2.0 7.0 0.00 0.00 0.00 36 1009.9
20260508181050 67 201 5.0 7.0 0.00 0.00 0.00 35 1009.9
20260508180049 68 57 2.0 9.0 0.00 0.00 0.00 37 1009.9
20260508175048 68 157 1.0 9.0 0.00 0.00 0.00 38 1009.9
20260508173046 67 123 2.0 11.0 0.00 0.00 0.00 40 1009.9
20260508172048 66 279 0.0 6.0 0.00 0.00 0.00 43 1009.9
20260508171037 66 2 0.0 6.0 0.00 0.00 0.00 43 1009.9
20260508170035 65 94 2.0 6.0 0.00 0.00 0.00 43 1009.9
20260508165035 65 156 0.0 6.0 0.00 0.00 0.00 45 1009.9
20260508164030 65 164 0.0 6.0 0.00 0.00 0.00 43 1009.9
20260508163025 65 281 1.0 5.0 0.00 0.00 0.00 43 1009.9
20260508162025 64 258 1.0 8.0 0.00 0.00 0.00 45 1009.9
20260508161025 63 213 1.0 8.0 0.00 0.00 0.00 43 1009.9
20260508160023 63 232 1.0 6.0 0.00 0.00 0.00 49 1009.9
20260508155023 62 329 1.0 6.0 0.00 0.00 0.00 49 1009.9
20260508154022 61 135 1.0 7.0 0.00 0.00 0.00 53 1009.9
20260508153021 60 175 0.0 6.0 0.00 0.00 0.00 67 1009.9
20260508152017 58 11 0.0 6.0 0.00 0.00 0.00 69 1009.9
20260508151011 57 230 1.0 9.0 0.00 0.00 0.00 75 1009.9
20260508150012 55 33 1.0 9.0 0.00 0.00 0.00 82 1009.9
20260508145010 53 50 1.0 6.0 0.00 0.00 0.00 85 1009.9
20260508144009 52 77 0.0 0.0 0.00 0.00 0.00 91 1009.9
20260508143006 50 77 0.0 0.0 0.00 0.00 0.00 95 1009.9
20260508141958 49 77 0.0 0.0 0.00 0.00 0.00 98 1009.9
20260508140950 47 77 0.0 0.0 0.00 0.00 0.00 100 1009.9
20260508134936 45 77 0.0 0.0 0.00 0.00 0.00 100 1009.9
20260508133929 44 77 0.0 0.0 0.00 0.00 0.00 100 1009.9
20260508132914 43 77 0.0 0.0 0.00 0.00 0.00 100 1009.9
20260508131909 42 77 0.0 0.0 0.00 0.00 0.00 100 1009.9
20260508130901 41 77 0.0 0.0 0.00 0.00 0.00 100 1009.9
20260508125854 40 77 0.0 0.0 0.00 0.00 0.00 100 1009.9
20260508124838 39 77 0.0 0.0 0.00 0.00 0.00 100 1009.9
20260508122838 37 77 0.0 0.0 0.00 0.00 0.00 99 1009.9
20260508121836 37 77 0.0 0.0 0.00 0.00 0.00 99 1009.9
20260508115821 36 77 0.0 0.0 0.00 0.00 0.00 98 1009.9
20260508114814 36 77 0.0 0.0 0.00 0.00 0.00 98 1009.9
20260508113806 36 77 0.0 0.0 0.00 0.00 0.00 98 1009.9
20260508112759 36 77 0.0 0.0 0.00 0.00 0.00 98 1009.9
20260508111751 36 77 0.0 0.0 0.00 0.00 0.00 98 1009.9
20260508110737 37 77 0.0 0.0 0.00 0.00 0.00 98 1009.9
20260508105736 37 77 0.0 0.0 0.00 0.00 0.00 98 1009.9
20260508104729 37 77 0.0 0.0 0.00 0.00 0.00 98 1009.9
20260508103717 37 77 0.0 0.0 0.00 0.00 0.00 98 1009.9
20260508102714 37 77 0.0 0.0 0.00 0.00 0.00 98 1009.9
20260508101706 37 77 0.0 0.0 0.00 0.00 0.00 98 1009.9
20260508100659 37 77 0.0 0.0 0.00 0.00 0.00 98 1009.9
20260508094645 38 77 0.0 0.0 0.00 0.00 0.00 98 1009.9
20260508092623 38 77 0.0 0.0 0.00 0.00 0.00 98 1009.9
20260508091613 38 77 0.0 0.0 0.00 0.00 0.00 98 1009.9
20260508090606 38 77 0.0 0.0 0.00 0.00 0.00 98 1009.9
20260508085558 38 77 0.0 0.0 0.00 0.00 0.00 98 1009.9
20260508084551 38 77 0.0 0.0 0.00 0.00 0.00 98 1009.9
20260508083553 38 77 0.0 0.0 0.00 0.00 0.00 98 1009.9
20260508082545 38 77 0.0 0.0 0.00 0.00 0.00 98 1009.9
20260508081538 38 77 0.0 0.0 0.00 0.00 0.00 97 1009.9
20260508072457 39 77 0.0 0.0 0.00 0.00 0.00 97 1009.9
20260508071451 39 77 0.0 0.0 0.00 0.00 0.00 97 1009.9
20260508070443 40 77 0.0 0.0 0.00 0.00 0.00 97 1009.9
20260508065436 40 77 0.0 0.0 0.00 0.00 0.00 97 1009.9
20260508062407 40 77 0.0 0.0 0.00 0.01 0.00 96 1009.9
20260508061400 40 77 0.0 0.0 0.00 0.01 0.00 96 1009.9
20260508060355 40 77 0.0 0.0 0.00 0.01 0.00 96 1009.9
20260508055347 40 77 0.0 0.0 0.00 0.01 0.00 96 1009.9
20260508054340 41 77 0.0 0.0 0.00 0.01 0.00 96 1009.9
20260508053323 41 77 0.0 0.0 0.00 0.01 0.00 96 1009.9
20260508052316 41 77 0.0 0.0 0.00 0.01 0.00 96 1009.9
20260508051315 41 77 0.0 0.0 0.00 0.01 0.00 96 1009.9
20260508050315 41 77 0.0 0.0 0.00 0.01 0.00 96 1009.9
20260508045307 41 77 0.0 0.0 0.00 0.01 0.00 96 1009.9
20260508043251 41 77 0.0 0.0 0.00 0.01 0.00 96 1009.9
20260508042240 42 77 0.0 0.0 0.00 0.01 0.00 95 1009.9
20260508041232 42 77 0.0 0.0 0.00 0.01 0.00 95 1009.9
20260508040214 42 77 0.0 0.0 0.00 0.01 0.00 95 1009.9
20260508035207 43 77 0.0 0.0 0.00 0.01 0.01 95 1009.9
20260508034202 43 77 0.0 0.0 0.00 0.01 0.01 95 1009.9
20260508033154 43 77 0.0 0.0 0.00 0.01 0.01 94 1009.9
20260508031143 44 77 0.0 0.0 0.00 0.01 0.01 94 1009.9
20260508030138 45 77 0.0 0.0 0.00 0.01 0.01 93 1009.9
20260508025133 45 77 0.0 0.0 0.00 0.02 0.01 93 1009.9
20260508023105 46 77 0.0 0.0 0.00 0.02 0.01 92 1009.9
20260508022102 47 77 0.0 0.0 0.00 0.02 0.01 91 1009.9
20260508021055 47 77 0.0 0.0 0.00 0.02 0.01 90 1009.9
20260508020048 47 77 0.0 0.0 0.00 0.02 0.01 90 1009.9
20260508015042 48 77 0.0 0.0 0.00 0.02 0.01 89 1009.9
20260508013025 49 77 0.0 0.0 0.00 0.03 0.01 87 1009.9
20260508010015 51 77 0.0 0.0 0.00 0.06 0.01 82 1009.9
20260508005009 52 77 0.0 0.0 0.00 0.08 0.01 82 1009.9
20260508003959 53 77 0.0 0.0 0.00 0.09 0.01 79 1009.9
20260508002952 55 77 0.0 0.0 0.00 0.10 0.01 77 1009.9
20260508001945 56 77 0.0 0.0 0.00 0.11 0.01 74 1009.9
20260508000937 57 77 0.0 0.0 0.00 0.13 0.01 70 1009.9
20260507235935 58 77 0.0 0.0 0.00 0.15 0.01 65 1009.9
20260507234934 60 77 0.0 3.0 0.00 0.16 0.01 61 1009.9
20260507233932 62 61 0.0 6.0 0.00 0.16 0.01 50 1009.9
20260507231927 64 288 0.0 3.0 0.00 0.16 0.01 52 1009.9
20260507230918 64 291 2.0 6.0 0.00 0.17 0.01 42 1009.9
20260507223907 65 75 0.0 3.0 0.00 0.17 0.01 44 1009.9
20260507222846 65 68 1.0 7.0 0.00 0.17 0.01 44 1009.9
20260507220844 66 147 0.0 8.0 0.00 0.18 0.01 45 1009.9
20260507215834 66 225 2.0 4.0 0.00 0.18 0.01 44 1009.9
20260507214833 66 299 1.0 5.0 0.00 0.18 0.01 45 1009.9
20260507213833 66 136 1.0 6.0 0.00 0.18 0.01 45 1009.9
20260507212834 65 229 1.0 5.0 0.00 0.18 0.01 44 1009.9
20260507211831 64 239 1.0 4.0 0.00 0.18 0.01 46 1009.9
20260507210833 65 78 1.0 4.0 0.00 0.18 0.01 46 1009.9
20260507205827 66 160 2.0 10.0 0.00 0.18 0.01 44 1009.9
20260507204824 65 106 1.0 6.0 0.00 0.18 0.01 49 1009.9
20260507203827 64 215 2.0 5.0 0.00 0.18 0.01 46 1009.9